METAR LOCAUX

2020/08/07 18:00 LFST 071800Z AUTO 36006KT CAVOK 32/17 Q1017 NOSIG
2020/08/07 18:20 EDSB 071820Z 34002KT CAVOK 30/18 Q1017
2020/08/07 18:00 LFGA 071800Z AUTO VRB02KT CAVOK 31/17 Q1017
www.noaa.gov

Ne pas utiliser pour préparer ou effectuer un vol: Utilisez la documentation officielle disponible sur aviation.meteo.fr (Aéroweb)


"Le soleil du matin ne dure pas forcément toute la journée."

Animation satellite IR

Meteociel.fr

"Derrière chaque nuage se cache le ciel bleu."

Radar pluie

Infoclimat.fr

"Si tu veux l’arc-en-ciel, tu dois supporter la pluie."
Dolly Parton

Nébulosité (octas)

Meteociel.fr

"Le soleil est souvent obscurci par les nuages et la raison par les passions."
Démophile

Impacts de foudre

www.meteo60.fr

"Celui que frappe la foudre n'entend pas le tonnerre."

Vigilance météo

vigilance-meteo.fr

"Tout nuage n'enfante pas une tempête."
William Shakespeare

TAF locaux

2020/08/07 18:22 TAF LFST 071700Z 0718/0818 VRB03KT CAVOK
2020/08/07 18:31 TAF EDSB 071700Z 0718/0818 01004KT CAVOK
www.noaa.gov

Ne pas utiliser pour préparer ou effectuer un vol: Utilisez la documentation officielle disponible sur aviation.meteo.fr (Aéroweb)


"Les jours où le ciel est gris, le soleil n'a pas disparu à tout jamais."
Arnaud Desjardins

Prévisions 7 jours


Meteoblue.com

"Quand les crapauds chantent, le beau temps s'avance !"